sat.trackr.live / text

‹ back to catalog

LMRST-SAT

NORAD 40971 · 2015-058H

PAYLOAD ACTIVE UNKNOWN

§ Identity

Operator
Country
US
Launch date
2015-10-08
Launch site
AFWTR
Launch vehicle
Mass (kg)
RCS (m²)

Purposes: tech_demo

External: N2YO · Heavens-Above · Gunter

§ Orbital elements

Epoch: 2026-09-10T00:48:11.745792Z

Period
96.58 min
Inclination
64.7762°
Eccentricity
0.0139114
Mean motion
14.90973293 rev/d
Perigee alt
497.9 km
Apogee alt
691.9 km
Semi-major
6,973.0 km
B*
1.1578e-4
RAAN
11.7160°
Arg perigee
26.6894°
Mean anomaly
334.1290°
Rev number
12,620

§ Raw data

LMRST-SAT1 40971U 15058H   26253.03346928  .00001195  00000+0  11578-3 0  99932 40971  64.7762  11.7160 0139114  26.6894 334.1290 14.90973293126205

JSON: /api/v1/satellites/40971 · /tle

For live sub-satellite position, see the globe view (requires WebGL).

§ Visibility from observer

Set your observer location to see the next 7 days of passes ≥ 10°. The values pass through the URL so the page stays shareable.

No JS? Fill the form by hand. The geolocation button needs JavaScript.